| time (UTC) | temp C | wind direction | speed KPH | gust KPH | rain 1hr cm | rain 24hr cm | rain mn cm | humidity % | barometer mb |
| 20260507043141 | 16 | 286 | 3.2 | 4.8 | 0.00 | 0.00 | 0.00 | 77 | 1017.5 |
| 20260507042619 | 16 | 256 | 3.2 | 4.8 | 0.00 | 0.00 | 0.00 | 78 | 1017.5 |
| 20260507042120 | 16 | 254 | 3.2 | 6.4 | 0.00 | 0.00 | 0.00 | 78 | 1017.5 |
| 20260507041620 | 16 | 294 | 3.2 | 6.4 | 0.00 | 0.00 | 0.00 | 77 | 1017.4 |
| 20260507041120 | 16 | 298 | 3.2 | 12.9 | 0.00 | 0.00 | 0.00 | 77 | 1017.4 |
| 20260507040619 | 16 | 296 | 6.4 | 12.9 | 0.00 | 0.00 | 0.00 | 77 | 1017.3 |
| 20260507040119 | 16 | 311 | 4.8 | 9.7 | 0.00 | 0.00 | 0.00 | 77 | 1017.3 |
| 20260507035618 | 16 | 287 | 3.2 | 8.0 | 0.00 | 0.00 | 0.00 | 77 | 1017.3 |
| 20260507035118 | 16 | 256 | 4.8 | 12.9 | 0.00 | 0.00 | 0.00 | 76 | 1017.3 |
| 20260507034636 | 16 | 302 | 4.8 | 12.9 | 0.00 | 0.00 | 0.00 | 76 | 1017.3 |
| 20260507034153 | 16 | 311 | 3.2 | 8.0 | 0.00 | 0.00 | 0.00 | 76 | 1017.2 |
| 20260507033631 | 16 | 289 | 3.2 | 11.3 | 0.00 | 0.00 | 0.00 | 75 | 1017.1 |
| 20260507033130 | 16 | 316 | 3.2 | 9.7 | 0.00 | 0.00 | 0.00 | 75 | 1017.1 |
| 20260507032631 | 17 | 283 | 4.8 | 9.7 | 0.00 | 0.00 | 0.00 | 74 | 1016.9 |
| 20260507032129 | 17 | 291 | 3.2 | 9.7 | 0.00 | 0.00 | 0.00 | 74 | 1017.0 |
| 20260507031629 | 17 | 319 | 3.2 | 14.5 | 0.00 | 0.00 | 0.00 | 73 | 1017.0 |
| 20260507031127 | 17 | 303 | 6.4 | 14.5 | 0.00 | 0.00 | 0.00 | 72 | 1016.9 |
| 20260507030625 | 17 | 313 | 4.8 | 12.9 | 0.00 | 0.00 | 0.00 | 72 | 1016.9 |
| 20260507030125 | 17 | 313 | 6.4 | 12.9 | 0.00 | 0.00 | 0.00 | 71 | 1016.8 |
| 20260507025626 | 17 | 313 | 8.0 | 12.9 | 0.00 | 0.00 | 0.00 | 71 | 1016.8 |
| 20260507025126 | 17 | 349 | 6.4 | 12.9 | 0.00 | 0.00 | 0.00 | 70 | 1016.8 |
| 20260507024627 | 17 | 279 | 4.8 | 12.9 | 0.00 | 0.00 | 0.00 | 69 | 1016.7 |
| 20260507024126 | 17 | 291 | 3.2 | 12.9 | 0.00 | 0.00 | 0.00 | 68 | 1016.6 |
| 20260507023626 | 18 | 319 | 6.4 | 11.3 | 0.00 | 0.00 | 0.00 | 67 | 1016.6 |
| 20260507023127 | 18 | 323 | 4.8 | 9.7 | 0.00 | 0.00 | 0.00 | 68 | 1016.5 |
| 20260507022626 | 18 | 295 | 6.4 | 12.9 | 0.00 | 0.00 | 0.00 | 66 | 1016.5 |
| 20260507022124 | 18 | 288 | 6.4 | 16.1 | 0.00 | 0.00 | 0.00 | 66 | 1016.5 |
| 20260507021625 | 18 | 277 | 8.0 | 16.1 | 0.00 | 0.00 | 0.00 | 65 | 1016.6 |
| 20260507021125 | 18 | 295 | 8.0 | 16.1 | 0.00 | 0.00 | 0.00 | 65 | 1016.4 |
| 20260507020625 | 18 | 304 | 8.0 | 16.1 | 0.00 | 0.00 | 0.00 | 64 | 1016.5 |
| 20260507020125 | 18 | 304 | 6.4 | 17.7 | 0.00 | 0.00 | 0.00 | 63 | 1016.5 |
| 20260507015626 | 19 | 296 | 8.0 | 16.1 | 0.00 | 0.00 | 0.00 | 62 | 1016.4 |
| 20260507015126 | 19 | 296 | 8.0 | 16.1 | 0.00 | 0.00 | 0.00 | 62 | 1016.4 |
| 20260507014626 | 20 | 281 | 8.0 | 17.7 | 0.00 | 0.00 | 0.00 | 61 | 1016.3 |
| 20260507014126 | 20 | 280 | 8.0 | 17.7 | 0.00 | 0.00 | 0.00 | 61 | 1016.4 |
| 20260507013625 | 20 | 325 | 4.8 | 14.5 | 0.00 | 0.00 | 0.00 | 60 | 1016.4 |
| 20260507013147 | 20 | 252 | 6.4 | 17.7 | 0.00 | 0.00 | 0.00 | 60 | 1016.3 |
| 20260507012626 | 20 | 318 | 9.7 | 14.5 | 0.00 | 0.00 | 0.00 | 59 | 1016.3 |
| 20260507012125 | 20 | 283 | 6.4 | 16.1 | 0.00 | 0.00 | 0.00 | 59 | 1016.3 |
| 20260507011646 | 20 | 321 | 6.4 | 16.1 | 0.00 | 0.00 | 0.00 | 58 | 1016.3 |
| 20260507011126 | 20 | 346 | 8.0 | 16.1 | 0.00 | 0.00 | 0.00 | 58 | 1016.3 |
| 20260507010626 | 20 | 299 | 4.8 | 16.1 | 0.00 | 0.00 | 0.00 | 58 | 1016.2 |
| 20260507010147 | 20 | 307 | 4.8 | 14.5 | 0.00 | 0.00 | 0.00 | 59 | 1016.3 |
| 20260507005626 | 20 | 323 | 8.0 | 14.5 | 0.00 | 0.00 | 0.00 | 58 | 1016.2 |
| 20260507005124 | 20 | 302 | 6.4 | 19.3 | 0.00 | 0.00 | 0.00 | 58 | 1016.2 |
| 20260507004623 | 21 | 277 | 11.3 | 19.3 | 0.00 | 0.00 | 0.00 | 57 | 1016.2 |
| 20260507004123 | 21 | 256 | 6.4 | 19.3 | 0.00 | 0.00 | 0.00 | 59 | 1016.2 |
| 20260507003621 | 21 | 225 | 6.4 | 19.3 | 0.00 | 0.00 | 0.00 | 60 | 1016.1 |
| 20260507003121 | 21 | 291 | 11.3 | 16.1 | 0.00 | 0.00 | 0.00 | 59 | 1016.1 |
| 20260507002621 | 21 | 309 | 4.8 | 16.1 | 0.00 | 0.00 | 0.00 | 59 | 1016.1 |
| 20260507002122 | 21 | 271 | 8.0 | 16.1 | 0.00 | 0.00 | 0.00 | 58 | 1016.1 |
| 20260507001621 | 21 | 284 | 6.4 | 17.7 | 0.00 | 0.00 | 0.00 | 57 | 1016.1 |
| 20260507001119 | 21 | 315 | 9.7 | 20.9 | 0.00 | 0.00 | 0.00 | 58 | 1016.0 |
| 20260507000618 | 21 | 247 | 9.7 | 20.9 | 0.00 | 0.00 | 0.00 | 58 | 1015.9 |
| 20260507000118 | 21 | 213 | 8.0 | 17.7 | 0.00 | 0.00 | 0.00 | 58 | 1015.9 |
| 20260506235617 | 21 | 275 | 11.3 | 17.7 | 0.00 | 0.00 | 0.00 | 59 | 1015.9 |
| 20260506235118 | 21 | 260 | 6.4 | 17.7 | 0.00 | 0.00 | 0.00 | 60 | 1015.9 |
| 20260506234617 | 21 | 275 | 8.0 | 19.3 | 0.00 | 0.00 | 0.00 | 59 | 1015.9 |
| 20260506234116 | 21 | 276 | 11.3 | 20.9 | 0.00 | 0.00 | 0.00 | 60 | 1016.0 |
| 20260506233617 | 21 | 318 | 11.3 | 20.9 | 0.00 | 0.00 | 0.00 | 60 | 1015.9 |
| 20260506233137 | 21 | 248 | 11.3 | 19.3 | 0.00 | 0.00 | 0.00 | 59 | 1015.9 |
| 20260506232635 | 20 | 244 | 11.3 | 20.9 | 0.00 | 0.00 | 0.00 | 60 | 1015.9 |
| 20260506232115 | 21 | 265 | 8.0 | 20.9 | 0.00 | 0.00 | 0.00 | 59 | 1015.8 |
| 20260506231635 | 21 | 266 | 12.9 | 22.5 | 0.00 | 0.00 | 0.00 | 59 | 1015.9 |
| 20260506231134 | 21 | 345 | 11.3 | 22.5 | 0.00 | 0.00 | 0.00 | 59 | 1015.8 |
| 20260506230652 | 21 | 290 | 14.5 | 22.5 | 0.00 | 0.00 | 0.00 | 57 | 1015.9 |
| 20260506230129 | 21 | 242 | 11.3 | 25.7 | 0.00 | 0.00 | 0.00 | 59 | 1015.8 |
| 20260506225650 | 21 | 286 | 9.7 | 20.9 | 0.00 | 0.00 | 0.00 | 58 | 1015.9 |
| 20260506225128 | 21 | 300 | 14.5 | 20.9 | 0.00 | 0.00 | 0.00 | 58 | 1015.8 |
| 20260506224643 | 21 | 256 | 12.9 | 20.9 | 0.00 | 0.00 | 0.00 | 58 | 1015.9 |
| 20260506224121 | 21 | 308 | 9.7 | 19.3 | 0.00 | 0.00 | 0.00 | 57 | 1016.0 |
| 20260506223620 | 21 | 246 | 9.7 | 22.5 | 0.00 | 0.00 | 0.00 | 57 | 1016.1 |
| 20260506223119 | 21 | 258 | 14.5 | 22.5 | 0.00 | 0.00 | 0.00 | 56 | 1016.1 |
| 20260506222620 | 21 | 288 | 8.0 | 20.9 | 0.00 | 0.00 | 0.00 | 56 | 1016.1 |
| 20260506222139 | 21 | 290 | 9.7 | 22.5 | 0.00 | 0.00 | 0.00 | 56 | 1016.1 |
| 20260506221617 | 21 | 302 | 14.5 | 27.4 | 0.00 | 0.00 | 0.00 | 57 | 1016.2 |
| 20260506221114 | 21 | 250 | 9.7 | 27.4 | 0.00 | 0.00 | 0.00 | 58 | 1016.1 |
| 20260506220615 | 21 | 249 | 12.9 | 24.1 | 0.00 | 0.00 | 0.00 | 57 | 1016.4 |
| 20260506220133 | 21 | 250 | 11.3 | 25.7 | 0.00 | 0.00 | 0.00 | 57 | 1016.4 |
| 20260506215633 | 22 | 275 | 11.3 | 25.7 | 0.00 | 0.00 | 0.00 | 56 | 1016.4 |
| 20260506215132 | 22 | 295 | 6.4 | 19.3 | 0.00 | 0.00 | 0.00 | 56 | 1016.4 |
| 20260506214631 | 22 | 236 | 9.7 | 17.7 | 0.00 | 0.00 | 0.00 | 56 | 1016.4 |
| 20260506214128 | 22 | 250 | 6.4 | 30.6 | 0.00 | 0.00 | 0.00 | 58 | 1016.5 |
| 20260506213628 | 21 | 216 | 14.5 | 30.6 | 0.00 | 0.00 | 0.00 | 58 | 1016.5 |
| 20260506213126 | 21 | 246 | 11.3 | 24.1 | 0.00 | 0.00 | 0.00 | 58 | 1016.5 |
| 20260506212628 | 21 | 218 | 11.3 | 25.7 | 0.00 | 0.00 | 0.00 | 58 | 1016.5 |
| 20260506212148 | 21 | 239 | 11.3 | 27.4 | 0.00 | 0.00 | 0.00 | 58 | 1016.6 |
| 20260506211626 | 21 | 248 | 12.9 | 22.5 | 0.00 | 0.00 | 0.00 | 58 | 1016.5 |
| 20260506211124 | 21 | 257 | 11.3 | 22.5 | 0.00 | 0.00 | 0.00 | 58 | 1016.5 |
| 20260506210624 | 21 | 282 | 12.9 | 27.4 | 0.00 | 0.00 | 0.00 | 58 | 1016.6 |
| 20260506210143 | 21 | 283 | 12.9 | 27.4 | 0.00 | 0.00 | 0.00 | 59 | 1016.6 |
| 20260506205620 | 21 | 298 | 14.5 | 22.5 | 0.00 | 0.00 | 0.00 | 58 | 1016.5 |
| 20260506205120 | 21 | 238 | 11.3 | 25.7 | 0.00 | 0.00 | 0.00 | 59 | 1016.6 |
| 20260506204619 | 21 | 325 | 9.7 | 25.7 | 0.00 | 0.00 | 0.00 | 58 | 1016.8 |
| 20260506204119 | 21 | 288 | 12.9 | 22.5 | 0.00 | 0.00 | 0.00 | 58 | 1016.7 |
| 20260506203620 | 21 | 246 | 12.9 | 24.1 | 0.00 | 0.00 | 0.00 | 58 | 1016.6 |
| 20260506203120 | 22 | 223 | 11.3 | 24.1 | 0.00 | 0.00 | 0.00 | 57 | 1016.7 |
| 20260506202620 | 21 | 210 | 11.3 | 22.5 | 0.00 | 0.00 | 0.00 | 58 | 1016.7 |
| 20260506202120 | 22 | 273 | 11.3 | 24.1 | 0.00 | 0.00 | 0.00 | 57 | 1016.8 |
| 20260506201620 | 22 | 240 | 12.9 | 24.1 | 0.00 | 0.00 | 0.00 | 56 | 1016.9 |
| 20260506201119 | 22 | 300 | 9.7 | 17.7 | 0.00 | 0.00 | 0.00 | 55 | 1016.8 |
| 20260506200619 | 22 | 250 | 12.9 | 24.1 | 0.00 | 0.00 | 0.00 | 56 | 1016.9 |
| 20260506200118 | 22 | 249 | 11.3 | 24.1 | 0.00 | 0.00 | 0.00 | 56 | 1016.9 |
| 20260506195636 | 22 | 229 | 11.3 | 25.7 | 0.00 | 0.00 | 0.00 | 57 | 1017.0 |
| 20260506195114 | 21 | 255 | 11.3 | 20.9 | 0.00 | 0.00 | 0.00 | 56 | 1017.0 |
| 20260506194614 | 22 | 295 | 11.3 | 19.3 | 0.00 | 0.00 | 0.00 | 55 | 1017.1 |
| 20260506194115 | 22 | 298 | 6.4 | 19.3 | 0.00 | 0.00 | 0.00 | 55 | 1017.1 |
| 20260506193634 | 22 | 345 | 8.0 | 16.1 | 0.00 | 0.00 | 0.00 | 54 | 1017.1 |
| 20260506193135 | 22 | 250 | 4.8 | 16.1 | 0.00 | 0.00 | 0.00 | 54 | 1017.1 |
| 20260506192614 | 22 | 292 | 6.4 | 17.7 | 0.00 | 0.00 | 0.00 | 54 | 1017.1 |
| 20260506192114 | 22 | 296 | 6.4 | 17.7 | 0.00 | 0.00 | 0.00 | 54 | 1017.1 |
| 20260506191634 | 22 | 5 | 4.8 | 14.5 | 0.00 | 0.00 | 0.00 | 53 | 1017.2 |
| 20260506191128 | 22 | 343 | 9.7 | 14.5 | 0.00 | 0.00 | 0.00 | 53 | 1017.2 |
| 20260506190628 | 21 | 244 | 8.0 | 24.1 | 0.00 | 0.00 | 0.00 | 54 | 1017.2 |
| 20260506190129 | 21 | 237 | 8.0 | 24.1 | 0.00 | 0.00 | 0.00 | 53 | 1017.3 |
| 20260506185629 | 22 | 244 | 8.0 | 16.1 | 0.00 | 0.00 | 0.00 | 52 | 1017.3 |
| 20260506185114 | 21 | 290 | 8.0 | 12.9 | 0.00 | 0.00 | 0.00 | 52 | 1017.3 |
| 20260506184614 | 21 | 337 | 8.0 | 16.1 | 0.00 | 0.00 | 0.00 | 52 | 1017.3 |
| 20260506184130 | 21 | 316 | 8.0 | 16.1 | 0.00 | 0.00 | 0.00 | 51 | 1017.4 |
| 20260506183630 | 21 | 281 | 8.0 | 16.1 | 0.00 | 0.00 | 0.00 | 52 | 1017.4 |
| 20260506183130 | 21 | 313 | 6.4 | 12.9 | 0.00 | 0.00 | 0.00 | 51 | 1017.6 |
| 20260506182628 | 21 | 329 | 4.8 | 14.5 | 0.00 | 0.00 | 0.00 | 53 | 1017.5 |
| 20260506182126 | 20 | 309 | 8.0 | 17.7 | 0.00 | 0.00 | 0.00 | 54 | 1017.7 |
| 20260506181626 | 20 | 286 | 3.2 | 17.7 | 0.00 | 0.00 | 0.00 | 54 | 1017.7 |
| 20260506181124 | 20 | 286 | 4.8 | 14.5 | 0.00 | 0.00 | 0.00 | 54 | 1017.8 |
| 20260506180624 | 20 | 248 | 9.7 | 16.1 | 0.00 | 0.00 | 0.00 | 55 | 1017.9 |
| 20260506180143 | 20 | 252 | 8.0 | 17.7 | 0.00 | 0.00 | 0.00 | 55 | 1018.0 |
| 20260506175640 | 20 | 295 | 4.8 | 17.7 | 0.00 | 0.00 | 0.00 | 56 | 1018.0 |
| 20260506175119 | 20 | 252 | 8.0 | 14.5 | 0.00 | 0.00 | 0.00 | 56 | 1018.1 |
| 20260506174618 | 19 | 309 | 4.8 | 16.1 | 0.00 | 0.00 | 0.00 | 56 | 1018.1 |
| 20260506174118 | 19 | 296 | 8.0 | 24.1 | 0.00 | 0.00 | 0.00 | 58 | 1018.2 |
| 20260506173637 | 19 | 271 | 11.3 | 24.1 | 0.00 | 0.00 | 0.00 | 58 | 1018.1 |
| 20260506173115 | 18 | 246 | 6.4 | 17.7 | 0.00 | 0.00 | 0.00 | 59 | 1018.1 |
| 20260506172636 | 18 | 245 | 6.4 | 17.7 | 0.00 | 0.00 | 0.00 | 59 | 1018.2 |
| 20260506172114 | 18 | 316 | 6.4 | 17.7 | 0.00 | 0.00 | 0.00 | 59 | 1018.4 |
| 20260506171635 | 18 | 334 | 4.8 | 16.1 | 0.00 | 0.00 | 0.00 | 61 | 1018.3 |
| 20260506171153 | 18 | 303 | 4.8 | 11.3 | 0.00 | 0.00 | 0.00 | 62 | 1018.4 |
| 20260506170631 | 17 | 151 | 3.2 | 11.3 | 0.00 | 0.00 | 0.00 | 64 | 1018.3 |
| 20260506170129 | 17 | 310 | 4.8 | 14.5 | 0.00 | 0.00 | 0.00 | 65 | 1018.3 |
| 20260506165629 | 17 | 292 | 8.0 | 14.5 | 0.00 | 0.00 | 0.00 | 65 | 1018.3 |
| 20260506165149 | 17 | 265 | 4.8 | 12.9 | 0.00 | 0.00 | 0.00 | 64 | 1018.3 |
| 20260506164626 | 17 | 309 | 4.8 | 12.9 | 0.00 | 0.00 | 0.00 | 65 | 1018.2 |
| 20260506164125 | 17 | 298 | 6.4 | 14.5 | 0.00 | 0.00 | 0.00 | 65 | 1018.2 |
| 20260506163646 | 17 | 313 | 6.4 | 14.5 | 0.00 | 0.00 | 0.00 | 65 | 1018.3 |
| 20260506163126 | 17 | 28 | 6.4 | 12.9 | 0.00 | 0.00 | 0.00 | 65 | 1018.3 |
| 20260506162625 | 17 | 313 | 4.8 | 9.7 | 0.00 | 0.00 | 0.00 | 65 | 1018.3 |
| 20260506162124 | 17 | 327 | 4.8 | 11.3 | 0.00 | 0.00 | 0.00 | 65 | 1018.3 |
| 20260506161622 | 17 | 347 | 4.8 | 11.3 | 0.00 | 0.00 | 0.00 | 66 | 1018.3 |
| 20260506161140 | 17 | 60 | 4.8 | 8.0 | 0.00 | 0.00 | 0.00 | 66 | 1018.3 |
| 20260506160620 | 17 | 349 | 3.2 | 8.0 | 0.00 | 0.00 | 0.00 | 66 | 1018.4 |
| 20260506160115 | 16 | 38 | 3.2 | 6.4 | 0.00 | 0.00 | 0.00 | 67 | 1018.3 |
| 20260506155632 | 16 | 355 | 3.2 | 8.0 | 0.00 | 0.00 | 0.00 | 67 | 1018.3 |
| 20260506155132 | 16 | 355 | 4.8 | 8.0 | 0.00 | 0.00 | 0.00 | 67 | 1018.3 |
| 20260506154651 | 16 | 68 | 3.2 | 9.7 | 0.00 | 0.00 | 0.00 | 67 | 1018.3 |
| 20260506154128 | 16 | 59 | 6.4 | 9.7 | 0.00 | 0.00 | 0.00 | 67 | 1018.4 |
| 20260506153627 | 16 | 55 | 6.4 | 9.7 | 0.00 | 0.00 | 0.00 | 68 | 1018.3 |
| 20260506153124 | 16 | 63 | 4.8 | 8.0 | 0.00 | 0.00 | 0.00 | 68 | 1018.3 |
| 20260506152624 | 16 | 51 | 4.8 | 9.7 | 0.00 | 0.00 | 0.00 | 68 | 1018.3 |
| 20260506152123 | 15 | 53 | 6.4 | 9.7 | 0.00 | 0.00 | 0.00 | 69 | 1018.4 |
| 20260506151621 | 15 | 29 | 6.4 | 9.7 | 0.00 | 0.00 | 0.00 | 69 | 1018.4 |
| 20260506151139 | 15 | 33 | 4.8 | 9.7 | 0.00 | 0.00 | 0.00 | 70 | 1018.4 |
| 20260506150616 | 15 | 50 | 6.4 | 9.7 | 0.00 | 0.00 | 0.00 | 70 | 1018.4 |
| 20260506150116 | 15 | 32 | 3.2 | 6.4 | 0.00 | 0.13 | 0.00 | 72 | 1018.4 |
| 20260506145614 | 14 | 5 | 4.8 | 9.7 | 0.00 | 0.13 | 0.00 | 73 | 1018.4 |
| 20260506145132 | 14 | 41 | 4.8 | 9.7 | 0.00 | 0.13 | 0.00 | 73 | 1018.4 |
| 20260506144630 | 13 | 52 | 4.8 | 6.4 | 0.00 | 0.13 | 0.00 | 74 | 1018.3 |
| 20260506144129 | 13 | 45 | 3.2 | 6.4 | 0.00 | 0.13 | 0.00 | 75 | 1018.4 |
| 20260506143646 | 13 | 47 | 3.2 | 6.4 | 0.00 | 0.13 | 0.00 | 76 | 1018.4 |
| 20260506143144 | 13 | 46 | 4.8 | 8.0 | 0.00 | 0.13 | 0.00 | 76 | 1018.3 |
| 20260506142623 | 13 | 52 | 6.4 | 8.0 | 0.00 | 0.13 | 0.00 | 76 | 1018.3 |
| 20260506142123 | 12 | 51 | 6.4 | 9.7 | 0.00 | 0.13 | 0.00 | 77 | 1018.3 |
| 20260506141624 | 12 | 37 | 6.4 | 9.7 | 0.00 | 0.13 | 0.00 | 78 | 1018.3 |
| 20260506141122 | 12 | 44 | 4.8 | 6.4 | 0.00 | 0.13 | 0.00 | 79 | 1018.3 |
| 20260506140620 | 12 | 45 | 3.2 | 4.8 | 0.00 | 0.13 | 0.00 | 79 | 1018.3 |
| 20260506140141 | 12 | 46 | 3.2 | 4.8 | 0.00 | 0.13 | 0.00 | 79 | 1018.4 |
| 20260506135640 | 12 | 69 | 3.2 | 6.4 | 0.00 | 0.13 | 0.00 | 79 | 1018.3 |
| 20260506135135 | 12 | 38 | 4.8 | 6.4 | 0.00 | 0.13 | 0.00 | 79 | 1018.3 |
| 20260506134654 | 12 | 36 | 4.8 | 6.4 | 0.00 | 0.13 | 0.00 | 79 | 1018.2 |
| 20260506134132 | 11 | 45 | 4.8 | 6.4 | 0.00 | 0.13 | 0.00 | 80 | 1018.1 |
| 20260506133630 | 11 | 61 | 4.8 | 6.4 | 0.00 | 0.13 | 0.00 | 80 | 1018.1 |
| 20260506133130 | 11 | 46 | 1.6 | 4.8 | 0.00 | 0.13 | 0.00 | 80 | 1018.0 |
| 20260506132628 | 11 | 45 | 3.2 | 6.4 | 0.00 | 0.13 | 0.00 | 80 | 1017.9 |
| 20260506132129 | 11 | 45 | 3.2 | 6.4 | 0.00 | 0.13 | 0.00 | 79 | 1018.0 |
| 20260506131629 | 11 | 48 | 3.2 | 6.4 | 0.00 | 0.13 | 0.00 | 79 | 1017.9 |
| 20260506131130 | 11 | 49 | 4.8 | 6.4 | 0.00 | 0.13 | 0.00 | 79 | 1017.8 |
| 20260506130631 | 11 | 57 | 3.2 | 6.4 | 0.00 | 0.13 | 0.00 | 79 | 1017.8 |
| 20260506130131 | 11 | 56 | 3.2 | 6.4 | 0.00 | 0.13 | 0.00 | 79 | 1017.7 |
| 20260506125631 | 11 | 57 | 3.2 | 6.4 | 0.00 | 0.13 | 0.00 | 79 | 1017.6 |
| 20260506125129 | 11 | 44 | 4.8 | 6.4 | 0.00 | 0.13 | 0.00 | 79 | 1017.6 |
| 20260506124648 | 11 | 40 | 3.2 | 6.4 | 0.00 | 0.13 | 0.00 | 79 | 1017.6 |
| 20260506124127 | 11 | 41 | 3.2 | 8.0 | 0.00 | 0.13 | 0.00 | 79 | 1017.6 |
| 20260506123647 | 11 | 46 | 4.8 | 8.0 | 0.00 | 0.13 | 0.00 | 80 | 1017.4 |
| 20260506123125 | 11 | 44 | 1.6 | 8.0 | 0.00 | 0.13 | 0.00 | 79 | 1017.6 |
| 20260506122625 | 11 | 44 | 3.2 | 8.0 | 0.00 | 0.13 | 0.00 | 80 | 1017.4 |
| 20260506122124 | 11 | 51 | 4.8 | 6.4 | 0.00 | 0.13 | 0.00 | 80 | 1017.4 |
| 20260506121643 | 11 | 48 | 4.8 | 8.0 | 0.00 | 0.13 | 0.00 | 80 | 1017.4 |
| 20260506121122 | 11 | 52 | 3.2 | 8.0 | 0.00 | 0.13 | 0.00 | 80 | 1017.2 |
| 20260506120641 | 11 | 32 | 0.0 | 0.0 | 0.00 | 0.13 | 0.00 | 80 | 1017.2 |
| 20260506120119 | 12 | 32 | 0.0 | 0.0 | 0.00 | 0.15 | 0.00 | 80 | 1017.3 |
| 20260506115619 | 12 | 31 | 0.0 | 0.0 | 0.00 | 0.15 | 0.00 | 79 | 1017.3 |
| 20260506115119 | 12 | 30 | 0.0 | 0.0 | 0.00 | 0.15 | 0.00 | 80 | 1017.2 |
| 20260506114619 | 12 | 30 | 0.0 | 0.0 | 0.00 | 0.15 | 0.00 | 79 | 1017.3 |
| 20260506114118 | 12 | 32 | 0.0 | 0.0 | 0.00 | 0.15 | 0.00 | 79 | 1017.3 |
| 20260506113639 | 12 | 32 | 0.0 | 0.0 | 0.00 | 0.15 | 0.00 | 79 | 1017.3 |
| 20260506113117 | 12 | 32 | 0.0 | 0.0 | 0.00 | 0.15 | 0.00 | 79 | 1017.3 |
| 20260506112617 | 12 | 32 | 0.0 | 0.0 | 0.00 | 0.15 | 0.00 | 80 | 1017.4 |
| 20260506112116 | 12 | 31 | 0.0 | 0.0 | 0.00 | 0.15 | 0.00 | 79 | 1017.3 |
| 20260506111634 | 12 | 31 | 0.0 | 0.0 | 0.00 | 0.15 | 0.00 | 80 | 1017.4 |
| 20260506111128 | 12 | 30 | 0.0 | 0.0 | 0.00 | 0.15 | 0.00 | 80 | 1017.3 |
| 20260506110627 | 12 | 31 | 0.0 | 0.0 | 0.00 | 0.15 | 0.00 | 80 | 1017.3 |
| 20260506110128 | 12 | 31 | 0.0 | 0.0 | 0.00 | 0.15 | 0.00 | 80 | 1017.4 |
| 20260506105628 | 12 | 31 | 0.0 | 0.0 | 0.00 | 0.15 | 0.00 | 80 | 1017.4 |
| 20260506105127 | 12 | 30 | 0.0 | 3.2 | 0.00 | 0.15 | 0.00 | 80 | 1017.4 |
| 20260506104625 | 12 | 32 | 1.6 | 4.8 | 0.00 | 0.15 | 0.00 | 80 | 1017.3 |
| 20260506104146 | 12 | 30 | 1.6 | 4.8 | 0.00 | 0.15 | 0.00 | 80 | 1017.4 |
| 20260506103626 | 12 | 280 | 0.0 | 0.0 | 0.00 | 0.15 | 0.00 | 80 | 1017.4 |
| 20260506103127 | 12 | 280 | 0.0 | 0.0 | 0.00 | 0.15 | 0.00 | 80 | 1017.3 |
| 20260506102628 | 12 | 280 | 0.0 | 0.0 | 0.00 | 0.15 | 0.00 | 80 | 1017.2 |
| 20260506102128 | 12 | 280 | 0.0 | 0.0 | 0.00 | 0.15 | 0.00 | 81 | 1017.2 |
| 20260506101629 | 12 | 280 | 0.0 | 1.6 | 0.00 | 0.15 | 0.00 | 81 | 1017.2 |
| 20260506101129 | 12 | 280 | 0.0 | 3.2 | 0.00 | 0.15 | 0.00 | 80 | 1017.2 |
| 20260506100629 | 12 | 280 | 0.0 | 0.0 | 0.00 | 0.15 | 0.00 | 80 | 1017.1 |
| 20260506100129 | 11 | 280 | 0.0 | 0.0 | 0.00 | 0.15 | 0.00 | 80 | 1017.0 |
| 20260506095628 | 12 | 280 | 0.0 | 0.0 | 0.00 | 0.15 | 0.00 | 80 | 1017.1 |
| 20260506095148 | 12 | 280 | 0.0 | 0.0 | 0.00 | 0.15 | 0.00 | 80 | 1017.0 |
| 20260506094625 | 12 | 280 | 0.0 | 0.0 | 0.00 | 0.15 | 0.00 | 80 | 1017.2 |
| 20260506094124 | 12 | 280 | 0.0 | 0.0 | 0.00 | 0.15 | 0.00 | 80 | 1017.1 |
| 20260506093625 | 12 | 280 | 0.0 | 0.0 | 0.00 | 0.15 | 0.00 | 79 | 1017.1 |
| 20260506093125 | 12 | 280 | 0.0 | 0.0 | 0.00 | 0.15 | 0.00 | 79 | 1017.0 |
| 20260506092626 | 12 | 280 | 0.0 | 0.0 | 0.00 | 0.15 | 0.00 | 79 | 1017.0 |
| 20260506092126 | 12 | 280 | 0.0 | 0.0 | 0.00 | 0.15 | 0.00 | 79 | 1017.0 |
| 20260506091625 | 12 | 280 | 0.0 | 0.0 | 0.00 | 0.15 | 0.00 | 79 | 1017.1 |
| 20260506091123 | 12 | 280 | 0.0 | 0.0 | 0.00 | 0.15 | 0.00 | 79 | 1017.2 |
| 20260506090623 | 12 | 280 | 0.0 | 0.0 | 0.00 | 0.15 | 0.00 | 79 | 1017.2 |
| 20260506090143 | 12 | 280 | 0.0 | 0.0 | 0.00 | 0.23 | 0.00 | 79 | 1017.2 |
| 20260506085620 | 12 | 280 | 0.0 | 0.0 | 0.00 | 0.23 | 0.00 | 79 | 1017.3 |
| 20260506085121 | 12 | 280 | 0.0 | 0.0 | 0.00 | 0.23 | 0.00 | 79 | 1017.4 |
| 20260506084619 | 12 | 280 | 0.0 | 0.0 | 0.00 | 0.23 | 0.00 | 79 | 1017.4 |
| 20260506084118 | 12 | 280 | 0.0 | 0.0 | 0.00 | 0.23 | 0.00 | 79 | 1017.5 |
| 20260506083616 | 12 | 280 | 0.0 | 0.0 | 0.00 | 0.23 | 0.00 | 79 | 1017.6 |
| 20260506083137 | 12 | 280 | 0.0 | 0.0 | 0.00 | 0.23 | 0.00 | 78 | 1017.7 |
| 20260506082615 | 12 | 280 | 0.0 | 0.0 | 0.00 | 0.23 | 0.00 | 79 | 1017.8 |
| 20260506082132 | 12 | 280 | 0.0 | 0.0 | 0.00 | 0.23 | 0.00 | 78 | 1017.7 |
| 20260506081632 | 12 | 280 | 0.0 | 0.0 | 0.00 | 0.23 | 0.00 | 78 | 1017.7 |
| 20260506081131 | 12 | 280 | 0.0 | 0.0 | 0.00 | 0.23 | 0.00 | 78 | 1017.8 |
| 20260506080630 | 12 | 280 | 0.0 | 0.0 | 0.00 | 0.23 | 0.00 | 78 | 1017.8 |
| 20260506080131 | 12 | 280 | 0.0 | 0.0 | 0.00 | 0.36 | 0.00 | 78 | 1017.8 |
| 20260506073127 | 13 | 280 | 0.0 | 0.0 | 0.00 | 0.36 | 0.00 | 76 | 1017.9 |
| 20260506072625 | 13 | 280 | 0.0 | 0.0 | 0.00 | 0.36 | 0.00 | 76 | 1017.9 |
| 20260506072124 | 13 | 280 | 0.0 | 0.0 | 0.00 | 0.36 | 0.00 | 76 | 1018.0 |
| 20260506071623 | 13 | 280 | 0.0 | 0.0 | 0.00 | 0.36 | 0.00 | 76 | 1018.0 |
| 20260506071145 | 13 | 280 | 0.0 | 0.0 | 0.00 | 0.36 | 0.00 | 75 | 1017.9 |
| 20260506070624 | 13 | 280 | 0.0 | 0.0 | 0.00 | 0.36 | 0.00 | 76 | 1018.0 |
| 20260506070118 | 13 | 280 | 0.0 | 0.0 | 0.00 | 0.41 | 0.36 | 75 | 1017.9 |
| 20260506062116 | 13 | 280 | 0.0 | 0.0 | 0.00 | 0.41 | 0.36 | 74 | 1017.6 |
| 20260506061618 | 13 | 280 | 0.0 | 0.0 | 0.00 | 0.41 | 0.36 | 73 | 1017.6 |
| 20260506061140 | 13 | 280 | 0.0 | 0.0 | 0.00 | 0.41 | 0.36 | 73 | 1017.7 |
| 20260506060618 | 14 | 280 | 0.0 | 0.0 | 0.00 | 0.41 | 0.36 | 73 | 1017.7 |
| 20260506060118 | 14 | 280 | 0.0 | 0.0 | 0.00 | 0.41 | 0.36 | 73 | 1017.6 |
| 20260506051119 | 14 | 280 | 1.6 | 3.2 | 0.00 | 0.41 | 0.36 | 71 | 1017.7 |
| 20260506050641 | 14 | 280 | 1.6 | 6.4 | 0.00 | 0.41 | 0.36 | 71 | 1017.7 |
| 20260506050119 | 14 | 280 | 3.2 | 6.4 | 0.00 | 0.41 | 0.36 | 71 | 1017.6 |
| 20260506045115 | 14 | 279 | 1.6 | 4.8 | 0.00 | 0.41 | 0.36 | 70 | 1017.6 |
| 20260506044615 | 15 | 279 | 1.6 | 4.8 | 0.00 | 0.41 | 0.36 | 70 | 1017.5 |
| 20260506044115 | 15 | 280 | 3.2 | 4.8 | 0.00 | 0.41 | 0.36 | 70 | 1017.5 |
| 20260506043614 | 15 | 281 | 1.6 | 4.8 | 0.00 | 0.41 | 0.36 | 70 | 1017.4 |